Location: Minneapolis
(45.0000°N, 93.0000°W)
Time: 00:49:08
(UTC-05:00)

Envisat - Pass Details

Date: 10 March 2018
Orbit: 764 x 766 km, 98.2° (Epoch: 24 June)

Event Time Altitude Azimuth Distance (km) Brightness Sun altitude
Rises 20:42:54 0° 203° (SSW) 3,215 6.2 -26.9°
Reaches altitude 10° 20:45:42 10° 218° (SW) 2,294 5.6 -27.4°
Maximum altitude 20:49:33 22° 268° (W) 1,641 5.3 -28.0°
Drops below altitude 10° 20:53:25 10° 318° (NW) 2,307 6.3 -28.6°
Sets 20:56:16 0° 334° (NNW) 3,239 7.0 -29.1°
